1535871600.99,35562,19.94,74744.8,10.85,7.97,8.09,0,*4E
1535871602.22,35563,19.94,74746.8,10.85,7.87,7.95,0,*44
1535871603.45,35564,19.94,74742.0,10.85,7.61,7.65,0,*44
1535871604.64,35565,19.94,74746.0,10.83,7.45,7.45,0,*47
1535871605.84,35566,19.94,74742.0,10.83,7.55,7.55,0,*44
1535871607.09,35567,19.94,74744.0,10.83,7.87,7.87,0,*45
1535871608.34,35568,19.94,74746.3,10.83,7.77,7.87,0,*45
1535871609.54,35569,19.94,74746.8,10.81,7.59,7.69,0,*4A
1535871610.8,35570,19.94,74744.8,10.83,7.61,7.61,0,*43
1535871612.05,35571,19.88,74744.0,10.83,7.61,7.65,0,*46
1535871613.26,35572,19.94,74746.0,10.81,7.55,7.61,0,*44
1535871614.49,35573,19.94,74742.5,10.81,7.61,7.69,0,*4A
1535871615.69,35574,19.94,74742.0,10.81,7.59,7.69,0,*46
1535871616.9,35575,19.94,74746.0,10.81,7.69,7.79,0,*45
1535871618.1,35576,19.88,74740.8,10.81,7.61,7.59,0,*4C
1535871619.32,35577,19.88,74742.3,10.77,7.69,7.69,0,*4F
1535871620.56,35578,19.94,74742.3,10.79,7.73,7.79,0,*44
1535871621.78,35579,19.88,74742.3,10.79,7.79,7.91,0,*49
1535871623.03,35580,19.88,74742.5,10.79,7.83,7.83,0,*49
1535871624.23,35581,19.88,74740.3,10.77,7.91,8.01,0,*40
1535871625.45,35582,19.94,74744.8,10.77,7.87,7.91,0,*42
1535871626.68,35583,19.94,74746.0,10.77,7.95,8.13,0,*45
1535871627.86,35584,19.88,74742.3,10.77,8.15,8.15,0,*43
1535871629.06,35585,19.94,74744.3,10.77,7.95,8.05,0,*44
1535871630.26,35586,19.94,74744.5,10.77,7.79,7.87,0,*40
1535871631.51,35587,19.94,74742.3,10.79,7.69,7.73,0,*45
1535871632.74,35588,19.88,74742.5,10.77,7.77,7.77,0,*4F
1535871633.94,35589,19.88,74738.3,10.77,7.79,7.91,0,*48
1535871635.16,35590,19.94,74740.8,10.75,7.87,7.97,0,*45
1535871636.37,35591,19.94,74738.0,10.75,8.09,8.09,0,*45
1535871637.59,35592,19.94,74738.8,10.75,7.87,7.97,0,*47
1535871638.79,35593,19.94,74740.3,10.73,7.91,7.97,0,*47
1535871640.02,35594,19.88,74740.5,10.75,7.91,7.97,0,*46
1535871641.27,35595,19.94,74742.0,10.75,7.83,7.83,0,*41
1535871642.46,35596,19.94,74742.8,10.73,7.87,7.97,0,*45
1535871643.64,35597,19.88,74740.3,10.73,8.01,8.09,0,*4D
1535871644.84,35598,19.88,74738.0,10.73,8.13,8.19,0,*40
1535871646.07,35599,19.94,74740.0,10.73,7.73,7.61,0,*48
1535871647.25,35600,19.88,74736.8,10.73,7.51,7.45,0,*4D
1535871648.48,35601,19.94,74740.5,10.73,7.65,7.73,0,*4E
1535871649.68,35602,19.94,74738.8,10.73,7.91,8.01,0,*4C
1535871650.88,35603,19.94,74742.5,10.71,7.97,8.15,0,*4C
1535871652.08,35604,19.88,74738.5,10.71,8.05,8.15,0,*4F
1535871653.28,35605,19.94,74740.0,10.71,7.97,8.09,0,*47
1535871654.49,35606,19.94,74740.3,10.71,7.97,8.09,0,*44
1535871655.69,35607,19.94,74738.5,10.69,7.73,7.79,0,*4E
1535871656.9,35608,19.94,74736.8,10.71,7.51,7.59,0,*4A
1535871658.1,35609,19.88,74736.3,10.69,7.37,7.47,0,*4D
1535871659.31,35610,19.94,74740.0,10.71,7.29,7.29,0,*4B
1535871660.49,35611,19.94,74738.8,10.69,7.41,7.41,0,*43
1535871661.7,35612,19.94,74738.0,10.69,7.73,7.79,0,*4A
1535871662.88,35613,19.88,74738.5,10.69,7.59,7.59,0,*41
1535871664.08,35614,19.94,74740.8,10.69,7.69,7.79,0,*47
1535871665.32,35615,19.94,74740.0,10.69,7.61,7.73,0,*44
1535871666.52,35616,19.88,74736.5,10.67,7.59,7.77,0,*46
1535871667.75,35617,19.94,74740.3,10.69,7.73,7.83,0,*4A
1535871668.95,35618,19.94,74738.3,10.67,7.59,7.77,0,*48
1535871670.13,35619,19.94,74742.0,10.67,7.79,7.97,0,*45
1535871671.34,35620,19.94,74740.8,10.67,7.79,7.95,0,*4D
1535871672.58,35621,19.94,74740.8,10.63,7.73,7.77,0,*4E
1535871673.81,35622,19.88,74740.3,10.63,7.61,7.65,0,*4D
1535871675.04,35623,19.94,74742.0,10.67,7.61,7.61,0,*4C
1535871676.22,35624,19.94,74740.3,10.63,7.45,7.55,0,*4E
1535871677.42,35625,19.94,74738.3,10.63,7.55,7.65,0,*4D
1535871678.68,35626,19.94,74742.3,10.61,7.61,7.73,0,*4C
1535871679.89,35627,19.94,74742.0,10.61,7.79,7.97,0,*4E
1535871681.11,35628,19.94,74740.8,10.61,7.87,8.01,0,*40
1535871682.31,35629,19.94,74738.0,10.61,7.97,8.09,0,*48
1535871683.49,35630,19.88,74738.8,10.63,8.01,8.01,0,*4A
1535871684.66,35631,19.88,74736.3,10.63,7.97,8.09,0,*43
1535871685.84,35632,19.94,74740.8,10.63,7.97,8.01,0,*48
1535871687.02,35633,19.94,74736.8,10.63,7.97,8.09,0,*41
1535871688.25,35634,19.88,74738.8,10.63,7.87,7.91,0,*49
1535871689.47,35635,19.94,74740.3,10.63,7.73,7.87,0,*44
1535871690.72,35636,19.94,74740.3,10.61,7.77,7.91,0,*46
1535871691.92,35637,19.94,74740.8,10.61,7.97,8.09,0,*47
1535871693.1,35638,19.94,74740.8,10.63,7.97,8.09,0,*4A
1535871694.28,35639,19.94,74742.8,10.63,8.09,8.09,0,*43
1535871695.45,35640,19.94,74742.0,10.63,8.01,8.09,0,*45
1535871696.66,35641,19.94,74736.3,10.63,7.91,7.97,0,*4A
1535871697.84,35642,19.88,74736.3,10.63,7.97,8.01,0,*4F
1535871699.06,35643,19.94,74740.0,10.61,8.19,8.29,0,*4F
1535871700.31,35644,19.94,74742.0,10.61,8.29,8.33,0,*40
1535871701.5,35645,19.94,74744.0,10.59,8.15,8.19,0,*4D
1535871702.73,35646,19.94,74742.3,10.61,8.19,8.33,0,*41
1535871703.93,35647,19.94,74742.5,10.63,8.09,8.13,0,*41
1535871705.14,35648,19.94,74740.5,10.63,8.19,8.29,0,*46
1535871706.35,35649,19.88,74738.8,10.63,8.13,8.19,0,*4E
1535871707.53,35650,19.94,74740.3,10.63,8.01,8.01,0,*4C
1535871708.71,35651,19.94,74742.8,10.63,8.01,8.19,0,*44
1535871709.92,35652,19.94,74740.0,10.63,8.09,8.13,0,*45
1535871711.13,35653,19.94,74744.8,10.63,8.09,8.13,0,*44
1535871712.33,35654,19.94,74742.0,10.63,8.33,8.45,0,*49
1535871713.54,35655,19.94,74740.5,10.63,8.45,8.59,0,*44
1535871714.77,35656,19.94,74740.0,10.67,8.47,8.55,0,*4D
1535871715.97,35657,19.94,74742.8,10.67,8.33,8.45,0,*4E
1535871717.15,35658,19.94,74740.0,10.67,8.15,8.27,0,*41
1535871718.34,35659,19.94,74740.3,10.67,8.15,8.27,0,*40
1535871719.52,35660,19.94,74742.8,10.67,8.15,8.27,0,*4A
1535871720.73,35661,19.94,74740.3,10.63,8.33,8.45,0,*4F
1535871721.96,35662,19.94,74740.0,10.63,8.55,8.59,0,*41
1535871723.15,35663,19.94,74740.5,10.67,8.27,8.45,0,*4C
1535871724.37,35664,19.94,74744.3,10.67,8.47,8.59,0,*40
1535871725.61,35665,19.94,74742.0,10.63,8.51,8.55,0,*4E
1535871726.79,35666,19.94,74742.3,10.67,8.15,8.27,0,*4C
1535871727.98,35667,19.94,74744.0,10.67,8.45,8.47,0,*4E
1535871729.21,35668,19.94,74740.8,10.67,8.37,8.47,0,*44
1535871730.43,35669,19.94,74742.0,10.67,8.37,8.47,0,*45
1535871731.66,35670,19.94,74742.3,10.67,8.47,8.59,0,*45
1535871732.88,35671,19.94,74742.3,10.69,8.29,8.47,0,*4D
1535871734.08,35672,19.94,74742.0,10.67,8.23,8.33,0,*49
1535871735.27,35673,19.94,74740.5,10.67,8.15,8.27,0,*48
1535871736.47,35674,19.94,74744.8,10.63,8.09,8.29,0,*48
1535871737.67,35675,19.88,74738.5,10.67,8.13,8.23,0,*4C
1535871738.87,35676,19.94,74742.8,10.67,8.13,8.15,0,*4A
1535871740.07,35677,19.94,74742.5,10.67,8.13,8.15,0,*4B
1535871741.25,35678,19.94,74742.0,10.67,8.01,8.05,0,*46
1535871742.46,35679,19.94,74740.5,10.69,8.27,8.37,0,*4C
1535871743.67,35680,19.94,74744.0,10.67,8.13,8.27,0,*42
1535871744.85,35681,19.94,74744.8,10.67,8.23,8.23,0,*44
1535871746.01,35682,19.94,74746.0,10.67,8.05,8.23,0,*43
1535871747.19,35683,19.94,74742.8,10.67,8.15,8.23,0,*43
1535871748.41,35684,19.88,74742.0,10.67,7.83,7.95,0,*46
1535871749.62,35685,19.94,74744.5,10.63,8.09,8.13,0,*4F
1535871750.83,35686,19.88,74742.3,10.63,8.23,8.41,0,*43
1535871752.04,35687,19.94,74740.8,10.67,8.23,8.33,0,*43
1535871753.27,35688,19.94,74744.3,10.63,8.51,8.55,0,*4D
1535871754.47,35689,19.94,74744.5,10.67,8.45,8.55,0,*4D
1535871755.68,35690,19.94,74748.0,10.63,8.55,8.69,0,*4F
1535871756.87,35691,19.94,74744.8,10.67,8.61,8.71,0,*44
1535871758.1,35692,19.94,74744.3,10.69,8.47,8.59,0,*47
1535871759.33,35693,19.94,74746.3,10.67,8.33,8.33,0,*47
1535871760.56,35694,19.94,74744.5,10.69,8.37,8.51,0,*4E
1535871761.75,35695,19.94,74750.3,10.67,8.45,8.59,0,*4C
1535871762.98,35696,19.94,74746.5,10.67,8.37,8.47,0,*45
1535871764.18,35697,19.94,74746.0,10.69,8.51,8.61,0,*4E
1535871765.41,35698,19.94,74744.0,10.69,8.71,8.75,0,*46
1535871766.64,35699,19.94,74744.8,10.69,8.41,8.51,0,*42
1535871767.87,35700,19.94,74740.3,10.69,8.51,8.59,0,*4A
1535871769.1,35701,19.94,74746.5,10.69,8.47,8.51,0,*44
1535871770.33,35702,19.94,74746.8,10.69,8.59,8.71,0,*4A
1535871771.53,35703,19.94,74750.3,10.69,8.65,8.75,0,*40
1535871772.7,35704,19.94,74744.0,10.69,8.61,8.65,0,*42
1535871773.89,35705,19.94,74744.5,10.69,8.51,8.65,0,*40
1535871775.13,35706,19.94,74746.5,10.71,8.19,8.29,0,*4E
1535871776.34,35707,19.88,74740.5,10.69,8.15,8.37,0,*45
1535871777.59,35708,19.94,74744.3,10.71,8.37,8.51,0,*43
1535871778.77,35709,19.88,74742.5,10.69,8.09,8.15,0,*46
1535871780.03,35710,19.94,74746.3,10.71,8.37,8.47,0,*4D
1535871781.25,35711,19.94,74746.5,10.71,8.61,8.71,0,*4A
1535871782.45,35712,19.94,74750.5,10.69,8.47,8.65,0,*41
1535871783.65,35713,19.94,74748.3,10.69,8.65,8.71,0,*45
1535871784.88,35714,19.94,74748.8,10.71,8.59,8.61,0,*45
1535871786.11,35715,19.94,74746.0,10.71,8.47,8.65,0,*4F
1535871787.37,35716,19.94,74746.8,10.71,8.47,8.59,0,*43
1535871788.6,35717,19.94,74750.0,10.73,8.37,8.51,0,*4F
1535871789.85,35718,19.88,74744.3,10.71,8.29,8.41,0,*4C
1535871791.06,35719,19.94,74744.5,10.73,8.23,8.41,0,*45
1535871792.26,35720,19.94,74744.8,10.73,8.23,8.29,0,*41
1535871793.49,35721,19.94,74744.5,10.71,7.95,7.97,0,*4A
1535871794.72,35722,19.94,74748.3,10.71,7.95,8.05,0,*4D
1535871795.95,35723,19.94,74748.3,10.71,8.19,8.29,0,*49
1535871797.19,35724,19.94,74746.3,10.71,8.27,8.37,0,*4C
1535871798.4,35725,19.94,74744.5,10.71,8.09,8.19,0,*4D
1535871799.61,35726,19.94,74744.8,10.71,8.19,8.27,0,*42
1535871800.84,35727,19.94,74746.5,10.71,7.47,7.41,0,*48
1535871802.02,35728,19.94,74746.8,10.69,7.97,8.15,0,*4D
1535871803.23,35729,19.94,74746.0,10.71,8.19,8.27,0,*4D
1535871804.49,35730,19.94,74746.5,10.71,8.47,8.51,0,*4F
1535871805.71,35731,19.94,74746.0,10.69,8.71,8.71,0,*40
1535871806.95,35732,19.94,74744.5,10.69,8.59,8.59,0,*43
1535871808.17,35733,19.94,74746.8,10.71,8.61,8.75,0,*4E
1535871809.37,35734,19.94,74750.8,10.69,8.61,8.71,0,*44
1535871810.59,35735,19.94,74744.8,10.71,8.65,8.71,0,*48
1535871811.82,35736,19.94,74744.5,10.71,8.61,8.75,0,*4B
1535871813.05,35737,19.94,74746.5,10.71,8.47,8.65,0,*4F
1535871814.27,35738,19.94,74744.5,10.71,8.61,8.71,0,*41
1535871815.51,35739,19.94,74746.8,10.71,8.59,8.61,0,*4A
1535871816.73,35740,19.94,74746.5,10.71,8.65,8.75,0,*4E
1535871817.92,35741,19.94,74744.3,10.73,8.69,8.75,0,*41
1535871819.1,35742,19.94,74746.5,10.73,8.65,8.79,0,*42
1535871820.33,35743,19.94,74744.5,10.75,8.55,8.69,0,*47
1535871821.52,35744,19.94,74744.8,10.73,8.61,8.75,0,*4C
1535871822.72,35745,19.94,74748.8,10.73,8.51,8.65,0,*4F
1535871823.88,35746,19.94,74740.5,10.73,8.65,8.65,0,*4B
1535871825.11,35747,19.94,74746.0,10.75,8.65,8.75,0,*4D
1535871826.28,35748,19.94,74742.3,10.73,8.45,8.61,0,*43
1535871827.45,35749,19.94,74742.8,10.73,8.65,8.69,0,*48
1535871828.71,35750,19.94,74744.5,10.75,8.41,8.55,0,*4F
1535871829.97,35751,19.94,74746.8,10.75,8.41,8.55,0,*4E
1535871831.21,35752,19.94,74744.8,10.75,8.55,8.61,0,*4F
1535871832.45,35753,19.94,74744.5,10.75,8.29,8.29,0,*49
1535871833.65,35754,19.94,74744.8,10.75,8.01,8.09,0,*46
1535871834.88,35755,19.94,74746.3,10.75,8.01,8.13,0,*4C
1535871836.08,35756,19.94,74740.3,10.75,8.09,8.19,0,*4D
1535871837.31,35757,19.94,74744.8,10.75,8.45,8.55,0,*4C
1535871838.51,35758,19.94,74742.3,10.73,8.55,8.65,0,*47
1535871839.74,35759,19.94,74742.5,10.75,8.51,8.65,0,*44
1535871840.96,35760,19.94,74746.3,10.73,8.41,8.51,0,*4E
1535871842.19,35761,19.94,74742.5,10.75,8.51,8.61,0,*4B
1535871843.44,35762,19.94,74742.8,10.75,8.29,8.41,0,*45
1535871844.65,35763,19.88,74738.8,10.75,8.23,8.45,0,*4A
1535871845.88,35764,19.94,74744.3,10.75,8.45,8.55,0,*4C
1535871847.11,35765,19.88,74738.8,10.75,8.55,8.65,0,*4F
1535871848.34,35766,19.94,74748.0,10.75,8.55,8.61,0,*48
1535871849.57,35767,19.94,74744.8,10.75,8.51,8.61,0,*4D
1535871850.83,35768,19.94,74748.0,10.75,8.41,8.51,0,*40
1535871852.05,35769,19.94,74740.3,10.75,7.87,7.97,0,*41
1535871853.31,35770,19.94,74744.3,10.75,7.73,7.73,0,*48
1535871854.56,35771,19.94,74746.8,10.75,7.65,7.73,0,*4E
1535871855.76,35772,19.94,74744.3,10.75,7.97,8.09,0,*42
1535871857.02,35773,19.94,74742.8,10.71,7.83,7.95,0,*48
1535871858.24,35774,19.94,74740.5,10.73,7.83,7.83,0,*4A
1535871859.42,35775,19.94,74740.8,10.73,8.09,8.19,0,*4A
1535871860.63,35776,19.94,74740.3,10.71,8.09,8.27,0,*46
1535871861.81,35777,19.94,74742.3,10.69,8.05,8.27,0,*42
1535871862.99,35778,19.94,74740.3,10.69,8.19,8.27,0,*40
1535871864.23,35779,19.94,74742.0,10.71,8.19,8.37,0,*49
1535871865.46,35780,19.94,74744.5,10.71,8.15,8.29,0,*4C
1535871866.69,35781,19.94,74740.5,10.71,8.19,8.29,0,*41
1535871867.92,35782,19.94,74742.5,10.71,7.87,7.97,0,*40
1535871869.12,35783,19.94,74740.8,10.69,7.87,7.97,0,*48
1535871870.3,35784,19.94,74738.0,10.69,8.09,8.15,0,*43
1535871871.5,35785,19.88,74736.8,10.71,8.05,8.15,0,*47
1535871872.71,35786,19.94,74736.3,10.69,8.15,8.29,0,*43
1535871873.92,35787,19.94,74736.8,10.69,8.27,8.37,0,*4C
1535871875.15,35788,19.94,74736.3,10.69,8.37,8.51,0,*42
1535871876.39,35789,19.94,74738.0,10.71,8.27,8.37,0,*4B
1535871877.62,35790,19.94,74740.8,10.71,8.27,8.29,0,*4C
1535871878.85,35791,19.94,74742.5,10.71,8.19,8.29,0,*40
1535871880.03,35792,19.94,74738.0,10.69,8.09,8.19,0,*48
1535871881.24,35793,19.94,74738.0,10.69,8.27,8.47,0,*4E
1535871882.45,35794,19.94,74742.3,10.69,8.19,8.41,0,*42
1535871883.7,35795,19.94,74740.5,10.71,8.37,8.59,0,*4F
1535871884.91,35796,19.94,74740.8,10.71,8.09,8.19,0,*45
1535871886.14,35797,19.94,74738.8,10.71,7.95,7.97,0,*47
1535871887.32,35798,19.94,74740.5,10.69,8.09,8.19,0,*42
1535871888.51,35799,19.94,74740.3,10.69,7.79,7.79,0,*42
1535871889.74,35800,19.94,74740.8,10.69,7.83,7.95,0,*4A
1535871890.91,35801,19.94,74740.0,10.69,8.05,8.09,0,*40
1535871892.09,35802,19.94,74742.5,10.69,8.09,8.19,0,*4E
1535871893.32,35803,19.94,74744.3,10.69,8.29,8.37,0,*41
1535871894.53,35804,19.94,74742.3,10.69,8.27,8.41,0,*49
1535871895.73,35805,19.94,74742.8,10.67,8.45,8.59,0,*4B
1535871896.95,35806,19.94,74742.5,10.67,8.37,8.47,0,*42
1535871898.14,35807,19.94,74742.5,10.67,8.45,8.47,0,*46
1535871899.33,35808,19.94,74742.0,10.67,8.23,8.27,0,*4F
1535871900.56,35809,19.94,74740.0,10.63,7.77,7.91,0,*46
1535871901.76,35810,19.94,74738.0,10.67,7.95,8.05,0,*44
1535871902.96,35811,19.94,74742.0,10.67,7.83,8.01,0,*46
1535871904.18,35812,19.94,74742.3,10.67,7.83,7.91,0,*43
1535871905.38,35813,19.94,74738.8,10.63,7.91,7.97,0,*43
1535871906.6,35814,19.94,74738.3,10.67,7.83,7.91,0,*45
1535871907.84,35815,19.94,74744.3,10.63,7.65,7.61,0,*47
1535871909.04,35816,19.94,74738.3,10.63,8.01,8.13,0,*43
1535871910.22,35817,19.94,74742.0,10.63,7.97,8.09,0,*49
1535871911.42,35818,19.94,74740.8,10.63,7.87,7.97,0,*4F
1535871912.63,35819,19.94,74744.0,10.63,7.79,7.91,0,*49
1535871913.86,35820,19.94,74744.0,10.63,7.77,7.87,0,*4A
1535871915.07,35821,19.94,74736.0,10.63,7.91,8.01,0,*42
1535871916.29,35822,19.94,74740.8,10.61,7.91,7.97,0,*43
1535871917.49,35823,19.94,74742.3,10.61,8.01,8.09,0,*4C
1535871918.69,35824,19.94,74742.5,10.61,8.01,8.09,0,*4B
1535871919.87,35825,19.94,74740.5,10.59,8.09,8.19,0,*48
1535871921.05,35826,19.94,74740.5,10.59,8.05,8.09,0,*46
1535871922.28,35827,19.94,74742.5,10.61,8.13,8.19,0,*4A
1535871923.52,35828,19.94,74740.0,10.61,8.29,8.33,0,*44
1535871924.75,35829,19.94,74740.0,10.61,8.23,8.41,0,*4A
1535871925.98,35830,19.94,74736.5,10.61,8.01,8.13,0,*45
1535871927.21,35831,19.94,74742.0,10.61,8.01,8.13,0,*44
1535871928.44,35832,19.94,74740.5,10.61,8.19,8.29,0,*47
1535871929.62,35833,19.94,74740.5,10.59,8.09,8.19,0,*4F
1535871930.83,35834,19.94,74740.8,10.59,7.95,8.05,0,*4F
1535871932.0,35835,19.94,74738.5,10.59,8.05,8.15,0,*49
1535871933.25,35836,19.94,74740.5,10.61,8.13,8.29,0,*49
1535871934.48,35837,19.94,74738.5,10.59,7.77,7.87,0,*45
1535871935.66,35838,19.88,74738.5,10.59,8.05,8.15,0,*44
1535871936.89,35839,19.94,74736.5,10.59,7.83,7.83,0,*44
1535871938.07,35840,19.94,74736.8,10.59,8.09,8.15,0,*47
1535871939.24,35841,19.94,74738.5,10.59,7.97,8.09,0,*43
1535871940.43,35842,19.94,74738.3,10.59,8.15,8.27,0,*49
1535871941.61,35843,19.94,74738.3,10.59,8.05,7.97,0,*4D
1535871942.78,35844,19.94,74738.3,10.59,8.05,8.09,0,*42
1535871944.0,35845,19.94,74736.5,10.59,8.27,8.37,0,*4E
1535871945.23,35846,19.94,74738.8,10.59,8.29,8.37,0,*43
1535871946.4,35847,19.94,74738.0,10.59,7.97,8.09,0,*45
1535871947.58,35848,19.94,74746.0,10.59,8.05,8.15,0,*43
1535871948.77,35849,19.94,74746.3,10.59,8.15,8.19,0,*4F
1535871949.97,35850,19.94,74742.3,10.55,7.95,8.05,0,*41
1535871951.23,35851,19.94,74740.8,10.57,7.91,7.95,0,*40
1535871952.46,35852,19.94,74742.8,10.57,7.79,7.91,0,*41
1535871953.7,35853,19.94,74742.5,10.57,7.91,8.05,0,*44
1535871954.91,35854,19.94,74738.8,10.55,8.23,8.33,0,*42
1535871956.11,35855,19.94,74740.8,10.55,8.13,8.23,0,*41
1535871957.34,35856,19.94,74742.5,10.59,8.29,8.55,0,*46
1535871958.54,35857,19.94,74742.8,10.57,8.05,8.15,0,*43
1535871959.78,35858,19.94,74742.5,10.57,7.95,8.05,0,*4B
1535871961.01,35859,19.94,74744.3,10.57,8.13,8.27,0,*4B
1535871962.22,35860,19.94,74746.3,10.59,8.19,8.29,0,*4B
1535871963.45,35861,19.94,74744.0,10.57,8.23,8.33,0,*46
1535871964.67,35862,19.94,74744.3,10.59,8.19,8.37,0,*46
1535871965.88,35863,19.94,74744.5,10.59,8.19,8.37,0,*47
1535871967.06,35864,19.94,74742.5,10.59,8.05,8.27,0,*4C
1535871968.24,35865,19.94,74744.8,10.59,7.97,8.05,0,*49
1535871969.44,35866,19.94,74746.3,10.59,8.09,8.29,0,*4C
1535871970.65,35867,19.94,74740.8,10.59,8.27,8.41,0,*4F
1535871971.9,35868,19.94,74742.8,10.61,8.29,8.41,0,*45
1535871973.13,35869,19.94,74740.5,10.61,8.23,8.51,0,*4F
1535871974.35,35870,19.94,74742.5,10.61,8.09,8.29,0,*40
1535871975.53,35871,19.94,74738.5,10.59,8.15,8.19,0,*44
1535871976.72,35872,19.94,74742.3,10.59,8.09,8.19,0,*4A
1535871977.95,35873,19.94,74740.3,10.61,8.19,8.33,0,*49
1535871979.16,35874,19.94,74740.0,10.59,8.19,8.37,0,*41
1535871980.38,35875,19.88,74740.8,10.61,8.29,8.45,0,*4D
1535871981.58,35876,19.94,74746.0,10.61,7.97,8.19,0,*4D
1535871982.76,35877,19.94,74746.8,10.59,7.97,8.09,0,*46
1535871983.98,35878,19.94,74744.8,10.61,8.13,8.23,0,*49
1535871985.19,35879,19.94,74748.3,10.61,8.19,8.27,0,*46
1535871986.37,35880,19.94,74746.3,10.59,7.97,8.15,0,*43
1535871987.58,35881,19.94,74744.5,10.63,8.19,8.33,0,*46
1535871988.81,35882,19.94,74746.8,10.61,8.45,8.59,0,*42
1535871990.06,35883,19.94,74746.5,10.61,8.51,8.59,0,*46
1535871991.31,35884,19.94,74746.3,10.61,8.13,8.33,0,*4B
1535871992.52,35885,19.94,74740.3,10.63,7.91,8.01,0,*4C
1535871993.72,35886,19.94,74742.5,10.63,7.87,8.01,0,*48
1535871994.95,35887,19.94,74744.0,10.63,8.13,8.29,0,*41
1535871996.18,35888,19.94,74742.8,10.61,8.19,8.33,0,*4D
1535871997.38,35889,19.94,74746.8,10.61,8.09,8.23,0,*4C
1535871998.6,35890,19.94,74746.0,10.61,8.09,8.29,0,*4E
1535871999.8,35891,19.94,74744.0,10.61,8.09,8.23,0,*45
1535872001.03,35892,19.94,74740.5,10.63,7.65,7.61,0,*48
1535872002.26,35893,19.94,74740.5,10.63,7.77,7.91,0,*45
1535872003.49,35894,19.94,74746.5,10.61,7.91,8.01,0,*4E
1535872004.69,35895,19.94,74744.8,10.61,8.09,8.19,0,*48
1535872005.92,35896,19.94,74746.0,10.61,7.91,8.01,0,*4C
1535872007.15,35897,19.94,74744.5,10.63,7.61,7.65,0,*4D
1535872008.36,35898,19.94,74746.3,10.61,7.79,8.01,0,*44
1535872009.56,35899,19.94,74742.5,10.61,8.01,8.19,0,*4C
1535872010.79,35900,19.94,74744.5,10.61,8.19,8.29,0,*47
1535872012.01,35901,19.94,74746.3,10.61,8.19,8.29,0,*46
1535872013.24,35902,19.94,74748.5,10.61,8.19,8.33,0,*4E
1535872014.42,35903,19.94,74746.3,10.63,7.97,8.09,0,*4D
1535872015.62,35904,19.94,74744.0,10.63,8.09,8.29,0,*40
1535872016.85,35905,19.94,74746.5,10.63,8.13,8.29,0,*4A
1535872018.06,35906,19.94,74744.0,10.63,8.01,8.13,0,*43
1535872019.26,35907,19.94,74746.5,10.63,7.87,7.97,0,*40
1535872020.44,35908,19.94,74744.5,10.63,7.79,7.97,0,*4E
1535872021.62,35909,19.94,74744.5,10.63,7.97,8.01,0,*4F
1535872022.79,35910,19.94,74746.8,10.63,7.97,8.09,0,*4F
1535872024.02,35911,19.94,74750.3,10.63,8.13,8.29,0,*4F
1535872025.23,35912,19.94,74748.5,10.63,8.13,8.19,0,*4F
1535872026.43,35913,19.94,74746.8,10.67,8.13,8.23,0,*43
1535872027.61,35914,19.94,74744.0,10.63,8.01,8.09,0,*4B
1535872028.82,35915,19.94,74746.3,10.63,8.19,8.29,0,*41
1535872030.04,35916,19.94,74746.3,10.63,8.29,8.41,0,*4F
1535872031.28,35917,19.94,74744.0,10.63,8.41,8.51,0,*41
1535872032.49,35918,19.94,74746.8,10.63,8.23,8.33,0,*4E
1535872033.71,35919,19.94,74744.5,10.63,8.29,8.41,0,*40
1535872034.91,35920,19.94,74742.8,10.67,8.45,8.47,0,*42
1535872036.14,35921,19.94,74740.3,10.67,8.37,8.55,0,*45
1535872037.32,35922,19.94,74744.5,10.69,8.15,8.19,0,*40
1535872038.52,35923,19.94,74740.5,10.67,8.23,8.33,0,*42
1535872039.76,35924,19.94,74746.5,10.67,8.47,8.55,0,*47
1535872040.95,35925,19.94,74746.8,10.67,8.45,8.59,0,*48
1535872042.14,35926,19.94,74742.5,10.67,8.15,8.27,0,*47
1535872043.32,35927,19.94,74746.5,10.67,8.15,8.27,0,*46
1535872044.52,35928,19.94,74742.0,10.67,8.45,8.55,0,*49
1535872045.75,35929,19.94,74744.8,10.69,8.47,8.59,0,*48
1535872046.98,35930,19.94,74744.0,10.69,8.29,8.47,0,*47
1535872048.19,35931,19.94,74742.0,10.69,8.27,8.37,0,*4F
1535872049.4,35932,19.94,74740.5,10.69,8.27,8.37,0,*4C
1535872050.61,35933,19.94,74744.3,10.69,8.19,8.37,0,*40
1535872051.79,35934,19.94,74746.5,10.69,8.09,8.19,0,*4A
1535872052.96,35935,19.94,74748.0,10.69,8.05,8.15,0,*4B
1535872054.17,35936,19.94,74746.0,10.67,8.15,8.29,0,*48
1535872055.37,35937,19.94,74746.5,10.67,8.23,8.33,0,*47
1535872056.59,35938,19.94,74744.0,10.67,8.33,8.47,0,*4A
1535872057.82,35939,19.94,74742.8,10.69,8.41,8.51,0,*47
1535872059.06,35940,19.94,74742.5,10.69,8.41,8.51,0,*49
1535872060.26,35941,19.94,74742.0,10.69,8.47,8.61,0,*4D
1535872061.46,35942,19.94,74746.8,10.69,8.59,8.65,0,*45
1535872062.69,35943,19.94,74744.0,10.69,8.29,8.51,0,*44
1535872063.92,35944,19.94,74744.3,10.69,8.41,8.51,0,*4D
1535872065.17,35945,19.94,74746.0,10.71,8.29,8.41,0,*4A
1535872066.43,35946,19.94,74740.3,10.71,8.29,8.41,0,*49
1535872067.66,35947,19.94,74740.3,10.71,8.19,8.29,0,*45
1535872068.89,35948,19.94,74740.0,10.71,7.95,8.09,0,*43
1535872070.06,35949,19.94,74744.8,10.69,7.97,8.09,0,*49
1535872071.27,35950,19.94,74738.8,10.67,7.91,8.01,0,*41
1535872072.45,35951,19.94,74742.8,10.69,8.09,8.15,0,*45
1535872073.62,35952,19.94,74744.3,10.69,8.05,8.09,0,*47
1535872074.83,35953,19.94,74740.8,10.69,8.15,8.29,0,*45
1535872076.04,35954,19.94,74740.3,10.69,8.19,8.37,0,*41
1535872077.25,35955,19.94,74740.3,10.69,8.15,8.37,0,*4C
1535872078.42,35956,19.94,74740.5,10.67,8.05,8.15,0,*40
1535872079.59,35957,19.94,74742.0,10.67,8.01,8.05,0,*44
1535872080.79,35958,19.94,74740.3,10.67,8.05,8.13,0,*48
1535872081.97,35959,19.94,74744.5,10.67,8.15,8.19,0,*42
1535872083.18,35960,19.94,74740.5,10.63,8.19,8.29,0,*43
1535872084.38,35961,19.94,74740.8,10.63,8.19,8.29,0,*42
1535872085.59,35962,19.94,74744.8,10.67,7.77,7.79,0,*48
1535872086.82,35963,19.94,74740.5,10.67,7.91,7.95,0,*43
1535872088.02,35964,19.94,74740.3,10.63,8.23,8.29,0,*4E
1535872089.23,35965,19.94,74742.8,10.63,8.19,8.29,0,*46
1535872090.44,35966,19.94,74744.3,10.63,8.23,8.29,0,*4C
1535872091.61,35967,19.94,74744.5,10.67,8.05,8.05,0,*43
1535872092.79,35968,19.94,74744.5,10.63,8.09,8.23,0,*40
1535872093.99,35969,19.94,74744.3,10.67,8.23,8.37,0,*48
1535872095.23,35970,19.94,74746.0,10.63,8.41,8.51,0,*40
1535872096.44,35971,19.94,74744.8,10.63,8.23,8.41,0,*44
1535872097.64,35972,19.94,74746.0,10.67,8.33,8.45,0,*46
1535872098.84,35973,19.94,74744.3,10.67,8.45,8.55,0,*47
1535872100.07,35974,19.94,74746.0,10.63,8.51,8.59,0,*4D
1535872101.28,35975,19.94,74746.5,10.63,8.55,8.65,0,*47
1535872102.48,35976,19.94,74746.8,10.67,8.55,8.69,0,*4C
1535872103.71,35977,19.94,74742.8,10.63,8.51,8.59,0,*4E
1535872104.91,35978,19.94,74744.3,10.63,8.61,8.71,0,*48
1535872106.12,35979,19.94,74744.3,10.67,8.55,8.61,0,*4B
1535872107.31,35980,19.94,74744.0,10.67,8.45,8.47,0,*48
1535872108.52,35981,19.94,74744.0,10.67,8.55,8.61,0,*4C
1535872109.72,35982,19.94,74746.0,10.67,8.55,8.61,0,*4F
1535872110.92,35983,19.94,74742.8,10.69,8.65,8.71,0,*42
1535872112.13,35984,19.94,74742.3,10.69,8.75,8.83,0,*49
1535872113.35,35985,19.94,74742.8,10.69,8.51,8.59,0,*49
1535872114.61,35986,19.94,74742.3,10.71,8.29,8.51,0,*44
1535872115.84,35987,19.94,74744.8,10.71,8.27,8.37,0,*4B
1535872117.09,35988,19.94,74742.0,10.71,8.29,8.47,0,*4D
1535872118.32,35989,19.94,74742.0,10.69,8.29,8.47,0,*45
1535872119.55,35990,19.94,74744.5,10.69,8.41,8.51,0,*44